$Date,$Time,DM0201B,DM0203B,DM0205B,DM0207B,DM0209B
10/08/98,00:00:01,37,358,-21,147,953
10/08/98,00:05:01,27,338,-20,149,953
10/08/98,00:10:01,27,326,-20,147,953
10/08/98,00:15:01,16,336,-21,141,953
10/08/98,00:20:01,5,336,-20,139,953
10/08/98,00:25:01,5,336,-20,141,953
10/08/98,00:30:01,19,279,-20,143,953
10/08/98,00:35:01,19,279,-20,138,953
10/08/98,00:40:01,19,269,-20,132,953
10/08/98,00:45:01,19,246,-20,130,953
10/08/98,00:50:01,19,236,-20,297,953
10/08/98,00:55:01,17,215,-20,245,953
10/08/98,01:00:01,41,205,-20,300,953
10/08/98,01:05:01,39,215,-20,276,953
10/08/98,01:10:01,27,205,-19,254,953
10/08/98,01:15:01,27,205,-19,205,953
10/08/98,01:20:01,48,203,-19,193,953
10/08/98,01:25:01,55,191,-19,190,953
10/08/98,01:30:01,50,191,-19,177,953
10/08/98,01:35:01,55,191,-20,189,953
10/08/98,01:40:01,84,191,-20,210,953
10/08/98,01:45:01,84,191,-20,252,953
10/08/98,01:50:01,96,180,-20,228,953
10/08/98,01:55:01,84,180,-20,187,953
10/08/98,02:00:01,79,180,-20,132,953
10/08/98,02:05:01,78,180,-20,124,953
10/08/98,02:10:01,88,180,-20,138,953
10/08/98,02:15:01,88,180,-20,141,953
10/08/98,02:20:01,98,190,-20,161,951
10/08/98,02:25:01,109,190,-19,135,951
10/08/98,02:30:01,107,190,-19,132,951
10/08/98,02:35:01,107,190,-19,312,951
10/08/98,02:40:01,124,190,-17,305,951
10/08/98,02:45:01,118,190,-18,305,951
10/08/98,02:50:01,125,200,-17,305,951
10/08/98,02:55:01,115,200,-16,313,951
10/08/98,03:00:01,117,199,-16,319,951
10/08/98,03:05:01,117,189,-16,355,951
10/08/98,03:10:01,111,189,-16,210,951
10/08/98,03:15:01,110,189,-16,260,951
10/08/98,03:20:01,88,189,-16,207,951
10/08/98,03:25:01,104,189,-17,189,951
10/08/98,03:30:01,83,189,-17,181,951
10/08/98,03:35:01,87,199,-18,159,951
10/08/98,03:40:01,82,197,-18,150,951
10/08/98,03:45:01,90,209,-18,145,951
10/08/98,03:50:01,95,206,-18,135,951
10/08/98,03:55:01,114,206,-18,133,951
10/08/98,04:00:01,122,206,-19,124,951
10/08/98,04:05:01,100,195,-19,113,951
10/08/98,04:10:01,119,195,-19,109,951
10/08/98,04:15:01,111,194,-19,107,951
10/08/98,04:20:01,122,194,-19,105,949
10/08/98,04:25:01,110,194,-19,107,949
10/08/98,04:30:01,109,195,-19,102,949
10/08/98,04:35:01,133,206,-19,115,949
10/08/98,04:40:01,136,206,-18,126,949
10/08/98,04:45:01,130,204,-18,123,949
10/08/98,04:50:01,125,209,-18,130,949
10/08/98,04:55:01,135,206,-17,122,949
10/08/98,05:00:01,139,187,-17,116,949
10/08/98,05:05:01,135,180,-17,110,949
10/08/98,05:10:01,144,180,-18,114,949
10/08/98,05:15:01,137,202,-18,106,949
10/08/98,05:20:01,78,202,-18,104,949
10/08/98,05:25:01,86,211,-18,100,949
10/08/98,05:30:01,83,220,-18,90,949
10/08/98,05:35:01,103,187,-18,84,949
10/08/98,05:40:01,164,179,-18,78,949
10/08/98,05:45:01,148,192,-18,72,949
10/08/98,05:50:01,148,188,-18,76,949
10/08/98,05:55:01,114,193,-17,68,949
10/08/98,06:00:01,129,181,-18,60,949
10/08/98,06:05:01,140,181,-19,50,949
10/08/98,06:10:01,110,177,-19,48,949
10/08/98,06:15:01,102,175,-19,40,949
10/08/98,06:20:01,118,185,-19,38,949
10/08/98,06:25:01,129,190,-19,38,949
10/08/98,06:30:01,102,177,-19,36,949
10/08/98,06:35:01,93,181,-19,34,949
10/08/98,06:40:01,126,175,-19,30,949
10/08/98,06:45:01,95,184,-19,28,947
10/08/98,06:50:01,66,186,-19,26,947
10/08/98,06:55:01,98,187,-19,24,947
10/08/98,07:00:01,98,185,-19,24,947
10/08/98,07:05:01,76,172,-19,26,947
10/08/98,07:10:01,85,186,-19,26,947
10/08/98,07:15:01,61,150,-19,28,947
10/08/98,07:20:01,59,198,-18,28,947
10/08/98,07:25:01,51,210,-19,26,947
10/08/98,07:30:01,15,323,-19,30,947
10/08/98,07:35:01,37,271,-19,36,947
10/08/98,07:40:01,50,314,-18,32,947
10/08/98,07:45:01,72,317,-19,22,947
10/08/98,07:50:01,84,295,-19,16,947
10/08/98,07:55:01,81,295,-19,22,947
10/08/98,08:00:01,31,274,-19,18,947
10/08/98,08:05:01,121,275,-20,12,947
10/08/98,08:10:01,109,275,-20,10,947
10/08/98,08:15:01,95,275,-20,8,947
10/08/98,08:20:01,109,275,-20,6,947
10/08/98,08:25:01,78,275,-20,6,947
10/08/98,08:30:01,52,270,-20,6,947
10/08/98,08:35:01,82,292,-20,4,947
10/08/98,08:40:01,59,278,-20,4,947
10/08/98,08:45:01,55,278,-20,4,947
10/08/98,08:50:01,41,289,-19,4,947
10/08/98,08:55:01,62,272,-19,4,947
10/08/98,09:00:01,58,294,-19,4,945
10/08/98,09:05:01,50,284,-19,2,945
10/08/98,09:10:01,60,285,-19,2,945
10/08/98,09:15:01,32,298,-19,2,945
10/08/98,09:20:01,60,333,-19,0,945
10/08/98,09:25:01,46,333,-20,0,945
10/08/98,09:30:01,1,249,-20,0,945
10/08/98,09:35:01,31,271,-20,0,945
10/08/98,09:40:01,30,269,-20,0,945
10/08/98,09:45:01,93,179,-19,0,945
10/08/98,09:50:01,74,140,-20,0,945
10/08/98,09:55:01,43,167,-19,0,945
10/08/98,10:00:01,45,220,-19,0,945
10/08/98,10:05:01,60,270,-20,0,945
10/08/98,10:10:01,75,231,-20,0,945
10/08/98,10:15:01,70,212,-19,0,945
10/08/98,10:20:01,216,199,-19,0,945
10/08/98,10:25:01,256,172,-19,0,945
10/08/98,10:30:01,223,189,-19,0,945
10/08/98,10:35:01,182,187,-19,0,945
10/08/98,10:40:01,256,188,-19,0,945
10/08/98,10:45:01,208,166,-19,0,945
10/08/98,10:50:01,231,201,-18,0,945
10/08/98,10:55:01,211,188,-18,0,943
10/08/98,11:00:01,278,190,-18,0,943
10/08/98,11:05:01,123,205,-18,0,943
10/08/98,11:10:01,298,184,-18,0,943
10/08/98,11:15:01,256,191,-18,0,943
10/08/98,11:20:01,275,193,-18,0,943
10/08/98,11:25:01,260,182,-18,0,943
10/08/98,11:30:01,255,188,-18,0,943
10/08/98,11:35:01,234,206,-18,0,943
10/08/98,11:40:01,277,198,-18,0,943
10/08/98,11:45:01,218,221,-18,0,943
10/08/98,11:50:01,256,203,-18,0,943
10/08/98,11:55:01,212,196,-18,0,943
10/08/98,12:00:01,226,208,-18,0,943
10/08/98,12:05:01,335,182,-18,0,943
10/08/98,12:10:01,273,196,-18,0,943
10/08/98,12:15:01,315,184,-18,0,943
10/08/98,12:20:01,484,184,-17,0,943
10/08/98,12:25:01,451,174,-17,0,943
10/08/98,12:30:01,463,186,-17,0,943
10/08/98,12:35:01,381,186,-17,0,941
10/08/98,12:40:01,305,187,-17,0,941
10/08/98,12:45:01,430,183,-17,0,941
10/08/98,12:50:01,322,183,-17,0,941
10/08/98,12:55:01,299,213,-18,0,941
10/08/98,13:00:01,213,221,-18,0,941
10/08/98,13:05:01,176,238,-19,0,941
10/08/98,13:10:01,246,196,-19,0,941
10/08/98,13:15:01,314,203,-18,0,941
10/08/98,13:20:01,226,212,-19,0,941
10/08/98,13:25:01,270,206,-18,0,941
10/08/98,13:30:01,323,184,-17,0,941
10/08/98,13:35:01,330,191,-17,0,941
10/08/98,13:40:01,595,180,-17,0,939
10/08/98,13:45:01,733,171,-17,0,939
10/08/98,13:50:01,735,173,-17,0,937
10/08/98,13:55:01,715,173,-17,0,937
10/08/98,14:00:01,820,173,-17,0,939
10/08/98,14:05:01,646,173,-17,0,939
10/08/98,14:10:01,627,185,-17,0,939
10/08/98,14:15:01,668,185,-17,0,939
10/08/98,14:20:01,759,185,-17,0,939
10/08/98,14:25:01,769,174,-17,0,937
10/08/98,14:30:01,703,174,-17,0,937
10/08/98,14:35:01,800,174,-17,0,937
10/08/98,14:40:01,873,184,-18,0,937
10/08/98,14:45:01,863,174,-18,0,937
10/08/98,14:50:01,725,170,-18,0,937
10/08/98,14:55:01,690,170,-18,0,937
10/08/98,15:00:01,629,170,-18,0,939
10/08/98,15:05:01,690,170,-18,0,939
10/08/98,15:10:01,728,170,-18,0,937
10/08/98,15:15:01,779,180,-18,0,937
10/08/98,15:20:01,902,169,-18,0,935
10/08/98,15:25:01,1088,179,-18,0,932
10/08/98,15:30:01,1072,179,-19,0,933
10/08/98,15:35:01,1071,180,-19,0,934
10/08/98,15:40:01,986,172,-19,0,936
10/08/98,15:45:01,891,173,-19,0,936
10/08/98,15:50:01,895,173,-19,0,936
10/08/98,15:55:01,895,173,-20,0,936
10/08/98,16:00:01,861,173,-20,0,934
10/08/98,16:05:01,967,173,-20,2,936
10/08/98,16:10:01,1023,155,-20,6,935
10/08/98,16:15:01,1039,177,-20,6,935
10/08/98,16:20:01,1078,174,-20,6,935
10/08/98,16:25:01,1052,174,-20,8,935
10/08/98,16:30:01,1022,178,-20,8,935
10/08/98,16:35:01,893,174,-20,8,937
10/08/98,16:40:01,943,174,-21,8,937
10/08/98,16:45:01,923,183,-21,8,937
10/08/98,16:50:01,860,176,-21,8,937
10/08/98,16:55:01,841,176,-21,8,937
10/08/98,17:00:01,884,177,-21,8,936
10/08/98,17:05:01,811,177,-21,8,938
10/08/98,17:10:01,783,177,-21,6,938
10/08/98,17:15:01,637,177,-21,8,940
10/08/98,17:20:01,725,176,-21,8,940
10/08/98,17:25:01,636,166,-22,8,940
10/08/98,17:30:01,589,166,-22,12,942
10/08/98,17:35:01,666,166,-22,12,942
10/08/98,17:40:01,534,176,-22,14,942
10/08/98,17:45:01,589,164,-22,19,942
10/08/98,17:50:01,634,173,-22,15,942
10/08/98,17:55:01,598,173,-22,15,942
10/08/98,18:00:01,642,173,-22,15,942
10/08/98,18:05:01,571,173,-22,15,942
10/08/98,18:10:01,556,173,-22,19,944
10/08/98,18:15:01,557,173,-22,19,944
10/08/98,18:20:01,493,173,-22,19,944
10/08/98,18:25:01,561,163,-22,21,944
10/08/98,18:30:01,526,163,-22,23,944
10/08/98,18:35:01,511,162,-22,25,944
10/08/98,18:40:01,577,160,-21,27,944
10/08/98,18:45:01,564,170,-21,29,944
10/08/98,18:50:01,552,170,-21,31,944
10/08/98,18:55:01,575,170,-21,31,944
10/08/98,19:00:01,490,170,-21,31,944
10/08/98,19:05:01,528,170,-21,29,944
10/08/98,19:10:01,513,170,-21,29,944
10/08/98,19:15:01,627,170,-21,31,944
10/08/98,19:20:01,562,180,-21,37,944
10/08/98,19:25:01,571,179,-21,39,944
10/08/98,19:30:01,572,179,-21,47,944
10/08/98,19:35:01,590,176,-21,51,944
10/08/98,19:40:01,526,175,-21,53,944
10/08/98,19:45:01,551,165,-21,59,944
10/08/98,19:50:01,531,165,-21,65,944
10/08/98,19:55:01,618,165,-21,67,944
10/08/98,20:00:01,610,165,-21,65,944
10/08/98,20:05:01,627,165,-21,69,944
10/08/98,20:10:01,559,165,-21,77,944
10/08/98,20:15:01,589,165,-21,87,944
10/08/98,20:20:01,546,165,-21,95,944
10/08/98,20:25:01,535,165,-21,99,944
10/08/98,20:30:01,548,165,-21,107,944
10/08/98,20:35:01,562,175,-21,118,944
10/08/98,20:40:01,553,174,-20,129,944
10/08/98,20:45:01,617,164,-20,162,944
10/08/98,20:50:01,533,164,-20,161,944
10/08/98,20:55:01,518,175,-20,131,944
10/08/98,21:00:01,607,175,-20,126,944
10/08/98,21:05:01,568,171,-20,149,944
10/08/98,21:10:01,569,171,-20,152,944
10/08/98,21:15:01,541,172,-20,160,944
10/08/98,21:20:01,530,172,-20,167,944
10/08/98,21:25:01,550,172,-20,162,944
10/08/98,21:30:01,547,172,-20,155,944
10/08/98,21:35:01,526,172,-20,145,944
10/08/98,21:40:01,526,172,-21,138,944
10/08/98,21:45:01,533,170,-21,123,944
10/08/98,21:50:01,586,170,-21,117,944
10/08/98,21:55:01,460,160,-21,113,944
10/08/98,22:00:01,508,170,-21,115,944
10/08/98,22:05:01,417,160,-21,113,944
10/08/98,22:10:01,497,160,-21,115,944
10/08/98,22:15:01,522,171,-21,119,944
10/08/98,22:20:01,534,160,-21,130,942
10/08/98,22:25:01,480,171,-21,136,942
10/08/98,22:30:01,558,159,-21,132,942
10/08/98,22:35:01,553,169,-21,135,942
10/08/98,22:40:01,549,169,-20,133,942
10/08/98,22:45:01,511,158,-20,143,942
10/08/98,22:50:01,520,169,-20,153,942
10/08/98,22:55:01,540,169,-20,155,942
10/08/98,23:00:01,531,169,-20,159,942
10/08/98,23:05:01,542,169,-20,151,942
10/08/98,23:10:01,529,164,-20,151,942
10/08/98,23:15:01,496,164,-20,145,942
10/08/98,23:20:01,455,142,-20,144,942
10/08/98,23:25:01,567,161,-20,149,942
10/08/98,23:30:01,493,161,-20,141,942
10/08/98,23:35:01,506,161,-19,131,942
10/08/98,23:40:01,505,161,-19,118,942
10/08/98,23:45:01,514,161,-19,114,942
10/08/98,23:50:01,489,161,-19,113,942
10/08/98,23:55:01,469,161,-20,117,942
10/09/98,00:00:01,565,171,-20,130,942
